This is the latest recevied weather packets stored in our database for station/object K4ZZR. If no packets are shown the sender has not sent any weather packets the latest 10 day(s).
| Time | Temp. | Humidity | Pressure | Rain* | Wind** | Luminosity | Snow |
|---|---|---|---|---|---|---|---|
| 1777592761 | 29.44° C | 56% | 1009.5 hPa | 0 mm | - | 8 W/m² | - |
| 1777592457 | 30° C | 56% | 1009.4 hPa | 0 mm | - | 12 W/m² | - |
| 1777592152 | 30° C | 55% | 1009.4 hPa | 0 mm | - | 15 W/m² | - |
| 1777591849 | 30° C | 54% | 1009.5 hPa | 0 mm | - | 18 W/m² | - |
| 1777591545 | 30° C | 54% | 1009.1 hPa | 0 mm | - | 22 W/m² | - |
| 1777591242 | 30° C | 54% | 1009.2 hPa | 0 mm | - | 29 W/m² | - |
| 1777590937 | 30.56° C | 53% | 1009.1 hPa | 0 mm | - | 41 W/m² | - |
| 1777590632 | 30.56° C | 53% | 1009 hPa | 0 mm | - | 54 W/m² | - |
| 1777590329 | 30.56° C | 53% | 1009.2 hPa | 0 mm | - | 64 W/m² | - |
| 1777590027 | 30.56° C | 53% | 1009.1 hPa | 0 mm | - | 74 W/m² | - |
| 1777589722 | 30.56° C | 53% | 1009.2 hPa | 0 mm | - | 71 W/m² | - |
| 1777589421 | 31.11° C | 53% | 1008.9 hPa | 0 mm | - | 96 W/m² | - |
| 1777589117 | 31.11° C | 53% | 1008.9 hPa | 0 mm | - | 89 W/m² | - |
| 1777588813 | 31.11° C | 52% | 1008.9 hPa | 0 mm | - | 122 W/m² | - |
| 1777588509 | 31.11° C | 52% | 1008.7 hPa | 0 mm | - | 129 W/m² | - |
| 1777588204 | 31.11° C | 53% | 1008.8 hPa | 0 mm | - | 151 W/m² | - |
| 1777587900 | 31.11° C | 52% | 1008.9 hPa | 0 mm | - | 165 W/m² | - |
| 1777587595 | 31.11° C | 52% | 1009 hPa | 0 mm | - | 87 W/m² | - |
| 1777587291 | 31.67° C | 52% | 1009.2 hPa | 0 mm | - | 164 W/m² | - |
| 1777586987 | 31.67° C | 51% | 1008.9 hPa | 0 mm | - | 212 W/m² | - |
| 1777586682 | 31.11° C | 53% | 1008.8 hPa | 0 mm | - | 224 W/m² | - |
| 1777586378 | 31.67° C | 52% | 1009 hPa | 0 mm | - | 269 W/m² | - |
| 1777586078 | 31.11° C | 52% | 1009.1 hPa | 0 mm | - | 298 W/m² | - |
| 1777585776 | 30.56° C | 53% | 1009.2 hPa | 0 mm | - | 171 W/m² | - |
| 1777585471 | 31.11° C | 52% | 1009.1 hPa | 0 mm | - | 132 W/m² | - |
* Rain latest hour (hover to see other rain measurements)
** Current wind speed in m/s (hover to see current wind gust speed)